Willimantic, CT

10:24 PM EST on December 05, 2019 (GMT -0500)
Windham

Weather History for KIJD - August, 2019

Change the Weather History Date:

Wednesday, August 14, 2019

  Actual Average Record
Temperature  
Mean Temperature 74 °F -  
Max Temperature 82 °F 81 °F 96 °F (2002)
Min Temperature 66 °F 57 °F 38 °F (1961)
Cooling Degree Days 8    
Growing Degree Days 24 (Base 50)    
Moisture  
Dew Point 66 °F    
Average Humidity 83    
Maximum Humidity 100    
Minimum Humidity 56    
Precipitation  
Precipitation 0.00 in - - ()
Sea Level Pressure  
Sea Level Pressure 29.84 in    
Wind  
Wind Speed 3 mph (NE)    
Max Wind Speed 10 mph    
Max Gust Speed -    
Visibility 8 miles    
Events Fog    
Averages and records for this station are not official NWS values.
T = Trace of Precipitation, MM = Missing Value Source: NWS Daily Summary

Daily Weather History Graph

Daily Weather History Graph

Search for Another Location

Airport or City:

Astronomy

Aug. 14, 2019 Rise Set
Actual Time 5:55 AM EDT 7:50 PM EDT
Civil Twilight 5:25 AM EDT 8:20 PM EDT
Nautical Twilight 4:49 AM EDT 8:56 PM EDT
Astronomical Twilight 4:09 AM EDT 9:36 PM EDT
Moon 7:43 PM EDT (8/14) 4:49 AM EDT (8/14)
Length of Visible Light 14h 54m
Length of Day
13h 54m
Waxing Gibbous, 99% of the Moon is Illuminated
Aug 14
Waxing Gibbous
Aug 15
Full
Aug 23
Last Quarter
Aug 30
New
Sep 5
First Quarter

Hourly Weather History & Observations

Time (EDT) Temp. Heat Index Dew Point Humidity Pressure Visibility Wind Dir Wind Speed Gust Speed Precip Events Conditions
12:52 AM 68.0 °F - 66.9 °F 96% 29.80 in 6.0 mi Calm Calm - N/A   Clear
1:03 AM 68.0 °F - 66.9 °F 96% 29.80 in 7.0 mi Calm Calm - N/A   Partly Cloudy
1:20 AM 68.0 °F - 66.9 °F 96% 29.80 in 7.0 mi Calm Calm - N/A   Mostly Cloudy
1:52 AM 68.0 °F - 66.9 °F 96% 29.78 in 6.0 mi Calm Calm - N/A   Overcast
2:52 AM 66.9 °F - 66.9 °F 100% 29.77 in 1.2 mi Calm Calm - N/A   Overcast
3:00 AM 66.9 °F - 66.9 °F 100% 29.78 in 0.5 mi Calm Calm - N/A Fog Fog
3:47 AM 66.2 °F - 66.2 °F 100% 29.79 in 2.5 mi North 3.5 mph - N/A   Mostly Cloudy
3:52 AM 66.0 °F - 64.9 °F 96% 29.78 in 4.0 mi North 3.5 mph - N/A   Scattered Clouds
4:26 AM 66.0 °F - 64.9 °F 96% 29.79 in 6.0 mi Calm Calm - N/A   Mostly Cloudy
4:38 AM 66.0 °F - 64.9 °F 96% 29.79 in 5.0 mi Calm Calm - N/A   Overcast
4:52 AM 66.0 °F - 64.9 °F 96% 29.78 in 5.0 mi Calm Calm - N/A   Overcast
5:37 AM 66.9 °F - 66.0 °F 97% 29.80 in 7.0 mi NNE 3.5 mph - N/A   Scattered Clouds
5:52 AM 66.0 °F - 64.9 °F 96% 29.80 in 7.0 mi ENE 3.5 mph - N/A   Clear
6:52 AM 66.9 °F - 66.0 °F 97% 29.83 in 7.0 mi North - - N/A   Mostly Cloudy
7:30 AM 69.1 °F - 66.0 °F 90% 29.84 in 9.0 mi NNE 9.2 mph - N/A   Overcast
7:48 AM 69.8 °F - 66.2 °F 88% 29.85 in 10.0 mi NE 5.8 mph - N/A   Overcast
7:52 AM 69.1 °F - 66.9 °F 93% 29.84 in 10.0 mi NE 5.8 mph - N/A   Overcast
8:52 AM 71.1 °F - 66.0 °F 84% 29.84 in 10.0 mi NNE 8.1 mph - N/A   Overcast
9:43 AM 73.0 °F - 64.9 °F 76% 29.85 in 10.0 mi ENE 6.9 mph - N/A   Mostly Cloudy
9:52 AM 75.0 °F - 64.9 °F 71% 29.85 in 10.0 mi ENE 8.1 mph - N/A   Scattered Clouds
10:52 AM 77.0 °F - 64.9 °F 66% 29.85 in 10.0 mi NNE 6.9 mph - N/A   Scattered Clouds
11:52 AM 80.1 °F 81.9 °F 64.9 °F 60% 29.84 in 10.0 mi NE 10.4 mph - N/A   Mostly Cloudy
12:52 PM 80.1 °F 81.7 °F 64.0 °F 58% 29.85 in 10.0 mi Variable 4.6 mph - N/A   Mostly Cloudy
1:52 PM 81.0 °F 82.5 °F 64.0 °F 56% 29.86 in 10.0 mi NE 8.1 mph - N/A   Mostly Cloudy
2:52 PM 81.0 °F 82.5 °F 64.0 °F 56% 29.85 in 10.0 mi Calm Calm - N/A   Overcast
3:52 PM 80.1 °F 81.9 °F 64.9 °F 60% 29.85 in 10.0 mi NNE 9.2 mph - N/A   Mostly Cloudy
4:52 PM 78.1 °F - 64.9 °F 64% 29.87 in 10.0 mi North 6.9 mph - N/A   Mostly Cloudy
5:52 PM 77.0 °F - 66.0 °F 69% 29.88 in 10.0 mi NNE 5.8 mph - N/A   Overcast
6:52 PM 77.0 °F - 66.9 °F 71% 29.89 in 10.0 mi ENE 4.6 mph - N/A   Partly Cloudy
7:52 PM 75.9 °F - 66.0 °F 71% 29.89 in 10.0 mi East 3.5 mph - N/A   Overcast
8:52 PM 73.0 °F - 66.0 °F 79% 29.91 in 10.0 mi Calm Calm - N/A   Partly Cloudy
9:52 PM 71.1 °F - 64.9 °F 81% 29.93 in 10.0 mi Calm Calm - N/A   Clear
10:52 PM 68.0 °F - 64.0 °F 87% 29.95 in 10.0 mi NE 3.5 mph - N/A   Partly Cloudy
11:52 PM 66.0 °F - 64.0 °F 93% 29.96 in 10.0 mi Calm Calm - N/A   Clear